Borden, Ontario

9:38 AM EDT on April 23, 2017 (GMT -0400)
Borden

Weather History for CYBN - May, 2013

Change the Weather History Date:

Monday, May 20, 2013

  Actual Average Record
Temperature  
Mean Temperature 70 °F -  
Max Temperature 87 °F 70 °F 89 °F (2012)
Min Temperature 54 °F 47 °F 26 °F (2000)
Cooling Degree Days 6    
Growing Degree Days 20 (Base 50)    
Moisture  
Dew Point 58 °F    
Average Humidity 67    
Maximum Humidity 88    
Minimum Humidity 40    
Precipitation  
Precipitation 0.08 in - - ()
Sea Level Pressure  
Sea Level Pressure 29.93 in    
Wind  
Wind Speed 7 mph ()    
Max Wind Speed 17 mph    
Max Gust Speed 25 mph    
Visibility 8.3 miles    
Events Rain    
Averages and records for this station are not official NWS values.
T = Trace of Precipitation, MM = Missing Value Source: Averaged Metar Reports

Daily Weather History Graph

Daily Weather History Graph

Search for Another Location

Airport or City:

Trip Planner

Search our weather history database for the weather conditions in past years. The results will help you decide how hot, cold, wet, or windy it might be!

Date:

Astronomy

May. 20, 2013 Rise Set
Actual Time 5:47 AM EDT 8:45 PM EDT
Civil Twilight 5:13 AM EDT 9:19 PM EDT
Nautical Twilight 4:29 AM EDT 10:03 PM EDT
Astronomical Twilight 3:37 AM EDT 10:56 PM EDT
Moon 3:41 PM EDT (5/20) 2:53 AM EDT (5/20)
Length of Visible Light 16h 06m
Length of Day
14h 58m
Waxing Gibbous, 75% of the Moon is Illuminated
May 20
Waxing Gibbous
May 25
Full
May 31
Last Quarter
Jun 8
New
Jun 16
First Quarter

Hourly Weather History & Observations

Time (EDT) Temp. Heat Index Dew Point Humidity Pressure Visibility Wind Dir Wind Speed Gust Speed Precip Events Conditions
12:00 AM 60.8 °F - 53.6 °F 77% 30.00 in 9.0 mi South 5.8 mph - N/A   Scattered Clouds
1:00 AM 57.2 °F - 51.8 °F 82% 29.99 in 9.0 mi Calm Calm - N/A   Clear
2:00 AM 56 °F - 51 °F 79% 29.97 in 7 mi South 3.5 mph - -  
2:00 AM 55.4 °F - 51.8 °F 88% 29.97 in 8.0 mi South 3.5 mph - N/A   Clear
3:00 AM 55.4 °F - 51.8 °F 88% 29.97 in 7.0 mi SW 2.3 mph - N/A   Clear
4:00 AM 55.4 °F - 51.8 °F 88% 29.97 in 7.0 mi South 4.6 mph - N/A   Clear
5:00 AM 57.2 °F - 53.6 °F 88% 29.97 in 7.0 mi South 6.9 mph - N/A   Partly Cloudy
7:00 AM 59.0 °F - 55.4 °F 88% 30.00 in 7.0 mi Calm Calm - N/A   Partly Cloudy
8:00 AM 67 °F - 58 °F 65% 30.00 in 9 mi SE 2.3 mph - -  
8:00 AM 66.2 °F - 57.2 °F 73% 30.00 in 9.0 mi South 2.3 mph - N/A   Clear
9:00 AM 71.6 °F - 59.0 °F 64% 29.99 in 9.0 mi East 3.5 mph - N/A   Clear
10:00 AM 73.4 °F - 60.8 °F 65% 29.97 in 9.0 mi South 3.5 mph - N/A   Clear
11:00 AM 77.0 °F - 60.8 °F 57% 29.96 in 9.0 mi East 3.5 mph - N/A   Clear
12:00 PM 80.6 °F 81.8 °F 62.6 °F 54% 29.96 in 9.0 mi SSE 8.1 mph - N/A   Partly Cloudy
1:00 PM 80.6 °F 81.8 °F 62.6 °F 54% 29.96 in 9.0 mi SSE 5.8 mph - N/A   Scattered Clouds
2:00 PM 82 °F - 62 °F 40% 29.93 in 9 mi SSE 11.5 mph - -  
2:00 PM 82.4 °F 82.9 °F 60.8 °F 48% 29.93 in 9.0 mi SSE 10.4 mph 18.4 mph N/A   Partly Cloudy
3:00 PM 82.4 °F 82.9 °F 60.8 °F 48% 29.91 in 9.0 mi SE 13.8 mph - N/A   Scattered Clouds
4:00 PM 86.0 °F 86.1 °F 60.8 °F 43% 29.88 in 9.0 mi SSE 15.0 mph 21.9 mph N/A   Scattered Clouds
5:00 PM 84.2 °F 84.4 °F 60.8 °F 45% 29.86 in 9.0 mi SSE 17.3 mph 24.2 mph N/A   Partly Cloudy
6:00 PM 82.4 °F 82.9 °F 60.8 °F 48% 29.84 in 9.0 mi SSE 17.3 mph 23.0 mph N/A   Partly Cloudy
7:00 PM 80.6 °F 81.5 °F 60.8 °F 51% 29.82 in 9.0 mi SSE 13.8 mph 21.9 mph N/A   Partly Cloudy
8:00 PM 78 °F - 60 °F 43% 29.83 in 9 mi SSE 12.7 mph - -  
8:00 PM 77.0 °F - 59.0 °F 54% 29.83 in 9.0 mi SSE 12.7 mph - N/A   Clear
9:00 PM 73.4 °F - 59.0 °F 61% 29.86 in 9.0 mi South 13.8 mph - N/A   Partly Cloudy
9:32 PM 73.4 °F - 59.0 °F 61% 29.90 in 9.0 mi West 16.1 mph - N/A   Scattered Clouds
9:40 PM 73.4 °F - 57.2 °F 57% 29.90 in 9.0 mi NW 15.0 mph 25.3 mph N/A Rain Rain
10:00 PM 66.2 °F - 59.0 °F 78% 29.96 in 8.0 mi West 16.1 mph - N/A Rain Light Rain
10:01 PM 66.2 °F - 59.0 °F 78% 29.95 in 7.0 mi WNW 15.0 mph 20.7 mph N/A Rain Light Rain
10:06 PM 64.4 °F - 59.0 °F 83% 29.96 in 2.1 mi WNW 10.4 mph 20.7 mph N/A Rain Rain
10:24 PM 64.4 °F - 59.0 °F 83% 29.95 in 9.0 mi WNW 5.8 mph - N/A Rain Light Rain
10:52 PM 64.4 °F - 59.0 °F 83% 29.93 in 9.0 mi NNW 6.9 mph - N/A Rain Light Rain
11:00 PM 64.4 °F - 57.2 °F 77% 29.90 in 6.0 mi North 9.2 mph - N/A Rain Rain
11:51 PM 64.4 °F - 59.0 °F 83% 29.85 in 9.0 mi South 11.5 mph - N/A   Mostly Cloudy
11:55 PM 64.4 °F - 59.0 °F 83% 29.86 in 9.0 mi South 16.1 mph - N/A   Scattered Clouds